Location: NJAA Observatory
(40.6819°N, 74.8979°W)
Time: 07:09:56
(UTC-04:00)

S-56A Canister/Altair - Visible Passes

Search period start: 24 May 2015 00:00
Search period end: 03 June 2015 00:00
Orbit: 636 x 2499 km, 38.9° (Epoch: 22 May)

Date Brightness Start Highest point End Pass type
(mag) Time Alt. Az. Time Alt. Az. Time Alt. Az.
24 May 10.3 00:25:26 19° ESE 00:25:26 19° ESE 00:28:15 10° E visible
24 May 8.9 02:22:48 43° SSW 02:25:39 55° SSE 02:32:51 10° E visible
24 May 8.3 04:21:09 10° W 04:30:12 78° S 04:36:08 10° E visible
24 May 10.5 23:53:48 16° ESE 23:53:48 16° ESE 23:55:48 10° E visible
25 May 9.1 01:51:09 47° S 01:53:05 52° SSE 02:00:47 10° E visible
25 May 8.4 03:48:30 11° WSW 03:57:50 78° S 04:04:10 10° E visible
25 May 10.7 23:21:55 13° ESE 23:21:55 13° ESE 23:23:11 10° E visible
26 May 9.2 01:19:15 48° S 01:20:28 50° SSE 01:28:39 10° E visible
26 May 8.6 03:16:34 15° WSW 03:25:23 77° S 03:32:11 10° E visible
26 May 10.8 22:49:36 12° ESE 22:49:36 12° ESE 22:50:26 10° E visible
27 May 9.4 00:46:53 47° SSE 00:47:47 48° SSE 00:56:28 10° E visible
27 May 8.7 02:44:09 18° WSW 02:52:52 75° S 03:00:10 10° E visible
27 May 8.3 04:48:34 10° W 04:57:28 72° SSW 05:03:18 10° ESE visible
27 May 10.8 22:01:32 10° S 22:16:16 12° ESE 22:17:29 10° E visible
28 May 9.5 00:02:27 10° SW 00:15:02 45° SSE 00:24:12 10° E visible
28 May 8.9 02:10:26 16° WSW 02:20:17 74° S 02:28:07 10° E visible
28 May 8.4 04:15:27 10° W 04:25:07 76° S 04:31:22 10° ESE visible
28 May 10.7 21:29:35 10° SSE 21:36:52 17° SE 21:44:16 10° ESE visible
28 May 9.7 23:29:28 10° SW 23:42:14 43° SSE 23:51:53 10° E visible
29 May 9.0 01:34:58 10° WSW 01:47:39 72° SSE 01:56:02 10° E visible
29 May 8.6 03:42:14 10° W 03:52:41 79° S 03:59:24 10° ESE visible
29 May 10.8 20:57:59 10° SSE 21:04:02 14° SE 21:10:42 10° ESE visible
29 May 9.9 22:56:34 10° SSW 23:09:22 40° SSE 23:19:27 10° E visible
30 May 9.1 01:01:41 10° WSW 01:14:55 70° SSE 01:23:53 10° E visible
30 May 8.7 03:08:56 10° W 03:20:11 80° S 03:27:25 10° E visible
30 May 10.0 22:23:46 10° SSW 22:36:29 37° SSE 22:46:56 10° E visible
31 May 9.3 00:28:24 10° WSW 00:42:07 67° SSE 00:51:41 10° E visible
31 May 8.8 02:35:36 10° W 02:47:36 81° S 02:55:22 10° E visible
31 May 8.6 04:42:54 10° W 04:52:09 55° SSW 04:58:14 10° SE visible
31 May 10.2 21:51:05 10° SSW 22:03:34 35° SE 22:14:18 10° E visible
31 May 9.4 23:55:09 10° WSW 00:09:15 65° SSE 00:19:25 10° E visible
01 Jun 9.0 02:02:13 10° W 02:14:57 82° S 02:23:17 10° E visible
01 Jun 8.6 04:09:41 10° W 04:19:48 61° SSW 04:26:22 10° ESE visible
01 Jun 10.3 21:18:31 10° SSW 21:30:37 32° SE 21:41:32 10° E visible
01 Jun 9.6 23:21:59 10° SW 23:36:20 62° SSE 23:47:05 10° E visible
02 Jun 9.1 01:28:50 10° W 01:42:13 82° S 01:51:09 10° E visible
02 Jun 8.7 03:36:25 10° W 03:47:22 67° SSW 03:54:27 10° ESE visible
02 Jun 10.5 20:46:06 10° S 20:57:41 29° SE 21:08:38 10° E visible
02 Jun 9.7 22:48:53 10° SW 23:03:21 59° SSE 23:14:40 10° E visible
